• în România
  • Lista ţărilor
  • Pe 7 zile
  • Temperatura apei
  • Hartă satelitară
  • Meteo pe hartă
  • Widget-uri
  • user-avatar
    Intrare

    Meteo pe oră la Oran

    Astăzi, 22 Iulie, Sâmbătă

    Timp Temperatura Precipitaţii Vânt Presiune Umiditate
    00:00 +28°C° 0 mm 3 m/s 749 mmHg 47%
    01:00 +28°C° 0,2 mm 3 m/s 749 mmHg 48%
    02:00 +27°C° 0,2 mm 3 m/s 749 mmHg 49%
    03:00 +27°C° 0,2 mm 3 m/s 749 mmHg 50%
    04:00 +27°C° 0 mm 2 m/s 749 mmHg 50%
    05:00 +27°C° 0 mm 2 m/s 749 mmHg 49%
    06:00 +27°C° 0 mm 2 m/s 750 mmHg 49%
    07:00 +28°C° 0 mm 2 m/s 750 mmHg 44%
    08:00 +29°C° 0 mm 2 m/s 750 mmHg 38%
    09:00 +31°C° 0 mm 2 m/s 750 mmHg 33%
    10:00 +32°C° 0 mm 2 m/s 750 mmHg 30%
    11:00 +35°C° 0 mm 3 m/s 750 mmHg 28%
    12:00 +36°C° 0 mm 4 m/s 750 mmHg 25%
    13:00 +36°C° 0 mm 4 m/s 750 mmHg 26%
    14:00 +36°C° 0 mm 4 m/s 750 mmHg 26%
    15:00 +36°C° 0 mm 4 m/s 749 mmHg 26%
    16:00 +35°C° 0 mm 3 m/s 749 mmHg 27%
    17:00 +35°C° 0 mm 2 m/s 749 mmHg 28%
    18:00 +34°C° 0 mm 2 m/s 749 mmHg 29%
    19:00 +34°C° 0 mm 2 m/s 750 mmHg 31%
    20:00 +32°C° 0 mm 1 m/s 750 mmHg 32%
    21:00 +32°C° 0 mm 1 m/s 751 mmHg 33%
    22:00 +31°C° 0 mm 1 m/s 751 mmHg 34%
    23:00 +31°C° 0 mm 2 m/s 751 mmHg 35%

    Mâine, 23 Iulie, Duminică

    Timp Temperatura Precipitaţii Vânt Presiune Umiditate
    00:00 +31°C° 0 mm 2 m/s 751 mmHg 36%
    01:00 +30°C° 0 mm 2 m/s 751 mmHg 38%
    02:00 +30°C° 0 mm 2 m/s 751 mmHg 40%
    03:00 +29°C° 0 mm 2 m/s 751 mmHg 43%
    04:00 +29°C° 0 mm 2 m/s 751 mmHg 44%
    05:00 +29°C° 0 mm 1 m/s 751 mmHg 45%
    06:00 +29°C° 0 mm 1 m/s 751 mmHg 46%
    07:00 +30°C° 0 mm 1 m/s 751 mmHg 42%
    08:00 +31°C° 0 mm 1 m/s 752 mmHg 38%
    09:00 +33°C° 0 mm 1 m/s 752 mmHg 33%
    10:00 +35°C° 0 mm 2 m/s 752 mmHg 32%
    11:00 +36°C° 0 mm 3 m/s 752 mmHg 30%
    12:00 +37°C° 0 mm 4 m/s 752 mmHg 29%
    13:00 +37°C° 0 mm 4 m/s 752 mmHg 30%
    14:00 +37°C° 0 mm 4 m/s 751 mmHg 31%
    15:00 +36°C° 0 mm 3 m/s 751 mmHg 32%
    16:00 +36°C° 0 mm 3 m/s 751 mmHg 34%
    17:00 +35°C° 0 mm 2 m/s 751 mmHg 36%
    18:00 +34°C° 0 mm 2 m/s 751 mmHg 38%
    19:00 +33°C° 0 mm 1 m/s 752 mmHg 40%
    20:00 +33°C° 0 mm 1 m/s 752 mmHg 41%
    21:00 +30°C° 0 mm 0 m/s 752 mmHg 42%
    22:00 +32°C° 0,2 mm 1 m/s 752 mmHg 43%
    23:00 +32°C° 0,2 mm 1 m/s 752 mmHg 43%

    Poimâine, 24 Iulie, Luni

    Timp Temperatura Precipitaţii Vânt Presiune Umiditate
    00:00 +31°C° 0,2 mm 2 m/s 752 mmHg 44%
    01:00 +31°C° 0,1 mm 2 m/s 752 mmHg 45%
    02:00 +30°C° 0,1 mm 1 m/s 752 mmHg 47%
    03:00 +30°C° 0,1 mm 1 m/s 751 mmHg 49%
    04:00 +30°C° 0 mm 1 m/s 751 mmHg 48%
    05:00 +30°C° 0 mm 1 m/s 751 mmHg 48%
    06:00 +30°C° 0 mm 1 m/s 751 mmHg 48%
    07:00 +31°C° 0 mm 1 m/s 751 mmHg 42%
    08:00 +33°C° 0 mm 1 m/s 751 mmHg 37%
    09:00 +34°C° 0 mm 1 m/s 751 mmHg 31%
    10:00 +36°C° 0 mm 2 m/s 751 mmHg 28%
    11:00 +37°C° 0 mm 2 m/s 751 mmHg 24%
    12:00 +39°C° 0 mm 3 m/s 751 mmHg 21%
    13:00 +39°C° 0 mm 3 m/s 751 mmHg 20%
    14:00 +39°C° 0 mm 3 m/s 751 mmHg 19%
    15:00 +40°C° 0 mm 4 m/s 750 mmHg 18%
    16:00 +40°C° 0 mm 4 m/s 750 mmHg 20%
    17:00 +38°C° 0 mm 3 m/s 750 mmHg 22%
    18:00 +37°C° 0 mm 3 m/s 750 mmHg 23%
    19:00 +36°C° 0 mm 3 m/s 750 mmHg 27%
    20:00 +35°C° 0 mm 2 m/s 750 mmHg 30%
    21:00 +34°C° 0 mm 2 m/s 751 mmHg 34%
    22:00 +32°C° 0 mm 2 m/s 751 mmHg 36%
    23:00 +32°C° 0 mm 2 m/s 751 mmHg 39%

    25 Iulie, Marţi

    Timp Temperatura Precipitaţii Vânt Presiune Umiditate
    00:00 +31°C° 0 mm 3 m/s 751 mmHg 42%
    01:00 +30°C° 0 mm 3 m/s 750 mmHg 46%
    02:00 +29°C° 0 mm 3 m/s 750 mmHg 51%
    03:00 +29°C° 0 mm 3 m/s 749 mmHg 55%
    04:00 +29°C° 0 mm 3 m/s 749 mmHg 56%
    05:00 +29°C° 0 mm 2 m/s 749 mmHg 56%
    06:00 +29°C° 0 mm 2 m/s 749 mmHg 56%
    07:00 +30°C° 0 mm 2 m/s 749 mmHg 49%
    08:00 +32°C° 0 mm 2 m/s 749 mmHg 41%
    09:00 +34°C° 0 mm 2 m/s 750 mmHg 34%
    10:00 +35°C° 0 mm 3 m/s 749 mmHg 32%
    11:00 +36°C° 0 mm 3 m/s 749 mmHg 29%
    12:00 +37°C° 0 mm 4 m/s 749 mmHg 27%
    13:00 +37°C° 0 mm 4 m/s 749 mmHg 27%
    14:00 +38°C° 0 mm 4 m/s 749 mmHg 27%
    15:00 +38°C° 0 mm 4 m/s 748 mmHg 27%
    16:00 +37°C° 0 mm 4 m/s 748 mmHg 29%
    17:00 +36°C° 0 mm 4 m/s 748 mmHg 30%
    18:00 +35°C° 0 mm 4 m/s 748 mmHg 32%
    19:00 +34°C° 0 mm 3 m/s 748 mmHg 35%
    20:00 +34°C° 0 mm 3 m/s 748 mmHg 39%
    21:00 +32°C° 0 mm 2 m/s 749 mmHg 42%
    22:00 +31°C° 0 mm 2 m/s 749 mmHg 46%
    23:00 +30°C° 0 mm 2 m/s 749 mmHg 50%

    26 Iulie, Miercuri

    Timp Temperatura Precipitaţii Vânt Presiune Umiditate
    00:00 +30°C° 0 mm 2 m/s 749 mmHg 55%
    01:00 +29°C° 0 mm 2 m/s 749 mmHg 58%
    02:00 +28°C° 0 mm 2 m/s 748 mmHg 62%
    03:00 +28°C° 0 mm 2 m/s 748 mmHg 66%
    04:00 +27°C° 0 mm 2 m/s 748 mmHg 67%
    05:00 +27°C° 0 mm 1 m/s 749 mmHg 69%
    06:00 +27°C° 0 mm 1 m/s 749 mmHg 70%
    07:00 +28°C° 0 mm 1 m/s 749 mmHg 62%
    08:00 +30°C° 0 mm 2 m/s 749 mmHg 54%
    09:00 +31°C° 0 mm 2 m/s 749 mmHg 45%
    10:00 +32°C° 0 mm 2 m/s 749 mmHg 41%
    11:00 +35°C° 0 mm 3 m/s 749 mmHg 37%
    12:00 +36°C° 0 mm 3 m/s 749 mmHg 33%
    13:00 +36°C° 0 mm 4 m/s 749 mmHg 33%
    14:00 +36°C° 0 mm 4 m/s 749 mmHg 32%
    15:00 +37°C° 0 mm 4 m/s 748 mmHg 32%
    16:00 +36°C° 0 mm 4 m/s 748 mmHg 34%
    17:00 +35°C° 0 mm 4 m/s 748 mmHg 36%
    18:00 +34°C° 0 mm 3 m/s 748 mmHg 37%
    19:00 +34°C° 0 mm 3 m/s 749 mmHg 40%
    20:00 +32°C° 0 mm 2 m/s 749 mmHg 43%
    21:00 +31°C° 0 mm 2 m/s 749 mmHg 46%
    22:00 +30°C° 0 mm 2 m/s 749 mmHg 50%
    23:00 +30°C° 0 mm 2 m/s 750 mmHg 54%

    27 Iulie, Joi

    Timp Temperatura Precipitaţii Vânt Presiune Umiditate
    00:00 +29°C° 0 mm 2 m/s 750 mmHg 58%
    01:00 +29°C° 0 mm 2 m/s 749 mmHg 60%
    02:00 +28°C° 0 mm 1 m/s 749 mmHg 62%
    03:00 +28°C° 0 mm 1 m/s 749 mmHg 64%
    04:00 +28°C° 0 mm 1 m/s 749 mmHg 64%
    05:00 +28°C° 0 mm 1 m/s 750 mmHg 64%
    06:00 +28°C° 0 mm 1 m/s 750 mmHg 64%
    07:00 +29°C° 0 mm 1 m/s 750 mmHg 56%
    08:00 +30°C° 0 mm 1 m/s 750 mmHg 49%
    09:00 +32°C° 0 mm 1 m/s 750 mmHg 41%
    10:00 +34°C° 0 mm 2 m/s 750 mmHg 37%
    11:00 +36°C° 0 mm 2 m/s 750 mmHg 33%
    12:00 +37°C° 0 mm 3 m/s 750 mmHg 29%
    13:00 +38°C° 0 mm 3 m/s 750 mmHg 29%
    14:00 +38°C° 0 mm 4 m/s 750 mmHg 29%
    15:00 +38°C° 0 mm 4 m/s 750 mmHg 29%
    16:00 +38°C° 0 mm 4 m/s 750 mmHg 30%
    17:00 +37°C° 0 mm 4 m/s 750 mmHg 31%
    18:00 +36°C° 0 mm 3 m/s 750 mmHg 32%
    19:00 +36°C° 0 mm 3 m/s 750 mmHg 33%
    20:00 +35°C° 0 mm 2 m/s 751 mmHg 35%
    21:00 +34°C° 0 mm 2 m/s 751 mmHg 36%
    22:00 +32°C° 0 mm 2 m/s 751 mmHg 38%
    23:00 +32°C° 0 mm 2 m/s 751 mmHg 39%
    Arată mai mult